GEFSMA_con_cape1000_162.txt.gz
Probability
10 13 10 10 6 6 3 3 0 0 0 0 0 0 3 6 3 6 45 84 87 90 87 77 77 74 58 65 71 68 74 55 61 65 71 48 48 42 42 29 19 19 23
6 10 6 3 10 10 6 3 0 0 0 0 0 0 0 6 3 6 32 68 87 90 94 94 77 65 61 55 61 71 65 65 71 77 68 61 55 58 55 52 23 29 26
19 16 19 13 13 10 3 0 3 0 0 0 0 0 0 0 3 10 19 26 48 87 90 90 81 81 71 55 45 58 65 55 61 61 61 65 61 58 55 58 52 55 48
19 16 16 16 10 13 3 6 0 0 0 0 0 0 0 0 3 6 10 16 23 29 55 71 77 81 65 58 48 52 55 58 68 61 58 58 55 52 55 55 48 45 29
32 16 16 16 16 6 6 6 3 0 0 0 0 0 0 0 3 6 6 6 6 6 13 42 71 61 58 58 58 52 55 58 58 55 48 48 45 52 42 52 45 42 29
32 19 19 19 10 6 3 3 3 0 0 0 0 0 0 0 0 3 6 6 3 6 6 10 26 35 61 61 65 61 58 52 52 52 52 45 42 48 42 35 39 39 35
32 23 23 16 16 13 3 3 0 3 0 0 0 0 0 0 0 0 0 3 3 6 3 3 3 6 13 35 55 58 52 48 52 48 52 48 48 48 39 42 32 29 35
26 23 19 23 16 10 10 6 0 3 0 0 0 0 0 0 0 0 0 0 0 3 10 3 0 0 0 3 10 39 45 48 45 35 48 58 52 45 42 39 32 29 26
26 23 16 16 19 13 6 3 0 3 0 0 0 0 0 0 0 0 0 0 0 0 3 0 0 0 0 0 0 10 42 42 42 29 32 39 39 32 16 19 26 26 26
26 23 16 19 19 10 6 6 3 0 0 0 0 0 0 0 0 0 0 0 0 0 0 0 3 0 0 0 0 0 6 6 26 32 23 29 32 32 29 26 23 16 13
23 19 23 19 13 6 6 3 3 0 0 0 0 0 0 0 0 0 0 0 0 0 0 0 0 0 0 0 0 0 0 0 0 16 23 26 26 23 29 23 13 6 13
16 19 23 19 10 10 6 6 3 3 3 3 0 0 0 0 0 0 0 0 0 0 0 0 0 0 0 0 0 0 0 0 0 0 0 6 16 16 16 13 13 10 10
10 19 19 13 3 3 3 0 0 0 0 0 0 0 0 0 0 0 0 0 0 0 0 0 0 0 0 0 0 0 0 0 0 0 0 0 0 3 3 3 16 10 13
6 10 10 13 6 3 6 0 0 0 0 0 0 0 0 0 0 0 0 0 0 0 0 0 0 0 0 0 0 0 0 0 0 0 0 0 0 0 0 0 0 0 0
6 6 10 13 6 6 6 0 0 0 0 0 0 0 0 0 0 0 0 0 0 0 0 0 0 0 0 0 0 0 0 0 0 0 0 0 0 0 0 0 0 0 0
6 6 6 10 10 6 3 0 0 0 0 0 0 0 0 0 0 0 0 0 0 0 0 0 0 0 0 0 0 0 0 0 0 0 0 0 0 0 0 0 0 0 0
6 6 6 10 6 6 3 0 0 0 0 0 0 0 0 0 0 0 0 0 0 0 0 0 0 0 0 0 0 0 0 0 0 0 0 0 0 0 0 0 0 0 0
6 3 6 6 6 6 3 0 0 0 0 3 0 0 0 0 0 0 0 0 0 0 0 0 0 0 0 0 0 0 0 0 0 0 0 0 0 0 0 0 0 0 0
3 3 3 6 6 6 6 3 0 0 0 3 3 0 0 0 0 0 0 0 0 0 0 0 0 0 0 0 0 0 0 0 0 0 0 0 0 0 0 0 0 0 0
3 3 3 6 6 6 6 3 0 0 0 0 3 0 0 0 0 0 0 0 0 0 0 0 0 0 0 0 0 0 0 0 0 0 0 0 0 0 0 0 0 0 0
3 0 0 0 3 3 3 3 0 0 0 0 0 0 0 0 0 0 0 0 0 0 0 0 0 0 0 0 0 0 0 0 0 0 0 0 0 0 0 0 0 0 0
3 0 0 0 0 0 0 0 0 0 0 0 0 0 0 0 0 0 0 0 0 0 0 0 0 0 0 0 0 0 0 0 0 0 0 0 0 0 0 0 0 0 0
6 0 0 0 0 0 0 0 0 0 0 0 0 0 0 0 0 0 0 0 0 0 0 0 0 0 0 0 0 0 0 0 0 0 0 0 0 0 0 0 0 0 0
6 3 0 0 0 0 0 0 0 0 0 0 0 0 0 0 0 0 0 0 0 0 0 0 0 0 0 0 0 0 0 0 0 0 0 0 0 0 0 0 0 0 0
6 3 3 0 0 0 0 0 0 0 0 0 0 0 0 0 0 0 0 0 0 0 0 0 0 0 0 0 0 0 0 0 0 0 0 0 0 0 0 0 0 0 0
6 3 3 0 0 0 0 0 0 0 0 0 0 0 0 0 0 0 0 0 0 0 0 0 0 0 0 0 0 0 0 0 0 0 0 0 0 0 0 0 0 0 0

GEFSMA_con_cape1000_168.txt.gz
Probability
10 13 10 13 6 0 0 0 0 0 0 0 3 0 3 3 6 19 45 68 81 77 71 71 58 55 61 71 65 68 61 52 48 61 58 55 45 39 32 29 32 32 29
3 3 0 0 0 0 0 0 0 0 0 0 3 0 3 6 13 26 39 68 74 81 77 58 52 45 45 55 52 58 61 58 58 61 58 52 55 55 45 35 29 23 23
3 0 0 0 0 0 0 0 0 0 0 0 0 0 0 0 10 16 32 42 58 68 74 68 61 58 42 48 42 45 61 61 61 61 61 58 55 65 52 48 35 39 32
3 0 0 0 3 0 0 0 0 0 0 0 0 0 0 0 6 16 23 29 39 39 55 58 71 58 42 29 23 26 52 55 61 55 58 52 58 52 52 52 52 42 32
6 3 0 3 3 0 0 0 0 0 0 0 0 0 0 0 3 3 13 16 19 19 32 39 45 58 52 32 35 29 39 52 61 55 52 58 52 45 39 42 42 32 26
10 6 0 3 3 0 0 0 3 0 0 0 0 0 0 0 0 3 3 3 10 10 13 13 29 35 29 45 42 39 26 39 58 61 52 45 45 39 39 35 29 19 26
13 10 13 3 6 6 3 0 0 0 0 0 0 0 0 0 0 0 0 3 3 10 10 10 10 16 23 26 29 39 32 26 35 45 48 52 42 42 39 42 26 23 19
13 13 10 10 3 6 0 0 0 0 0 0 0 0 0 0 0 0 0 0 0 0 6 6 6 10 13 13 10 29 42 35 29 35 39 42 42 42 32 29 29 19 16
19 26 13 6 3 3 0 0 0 0 0 0 0 0 0 0 0 0 0 0 0 0 0 10 13 10 6 6 6 0 29 29 32 23 23 35 39 35 32 26 23 23 19
16 16 13 6 3 3 0 0 0 0 0 0 0 0 0 0 0 0 0 0 0 0 0 0 10 13 10 6 3 0 0 3 16 29 32 26 29 29 29 29 26 19 19
19 19 16 10 6 3 3 0 0 0 0 0 0 0 0 0 0 0 0 0 0 0 0 0 3 6 6 6 3 0 0 0 0 10 19 26 19 23 19 16 19 16 16
3 13 13 10 10 10 3 0 0 0 0 0 0 0 0 0 0 0 0 0 0 0 0 0 0 3 3 0 0 0 0 0 0 0 3 10 10 10 16 13 10 6 3
6 10 13 10 6 3 3 0 0 0 0 0 0 0 0 0 0 0 0 0 0 0 0 0 0 0 0 0 0 0 0 0 0 0 0 0 3 3 3 3 3 3 3
10 10 10 6 3 3 3 3 0 0 0 0 0 0 0 0 0 0 0 0 0 0 0 0 0 0 0 0 0 0 0 0 0 0 0 0 0 0 0 0 0 0 0
10 10 6 10 0 0 0 0 0 0 0 0 0 0 0 0 0 0 0 0 0 0 0 0 0 0 0 0 0 0 0 0 0 0 0 0 0 0 0 0 0 0 0
6 3 6 6 3 0 0 0 0 0 0 0 0 0 0 0 0 0 0 0 0 0 0 0 0 0 0 0 0 0 0 0 0 0 0 0 0 0 0 0 0 0 0
3 3 3 6 3 3 0 0 0 0 0 0 0 0 0 0 0 0 0 0 0 0 0 0 0 0 0 0 0 0 0 0 0 0 0 0 0 0 0 0 0 0 0
6 6 3 6 3 3 3 3 0 0 0 0 0 0 0 0 0 0 0 0 0 0 0 0 0 0 0 0 0 0 0 0 0 0 0 0 0 0 0 0 0 0 0
6 6 3 3 6 3 3 3 3 0 0 0 0 0 0 0 0 0 0 0 0 0 0 0 0 0 0 0 0 0 0 0 0 0 0 0 0 0 0 0 0 0 0
6 3 3 3 6 3 3 3 3 3 0 0 0 0 0 0 0 0 0 0 0 0 0 0 0 0 0 0 0 0 0 0 0 0 0 0 0 0 0 0 0 0 0
3 3 3 3 3 3 6 3 3 3 0 0 0 0 0 0 0 0 0 0 0 0 0 0 0 0 0 0 0 0 0 0 0 0 0 0 0 0 0 0 0 0 0
3 0 3 3 3 3 3 0 0 3 3 0 0 0 0 0 0 0 0 0 0 0 0 0 0 0 0 0 0 0 0 0 0 0 0 0 0 0 0 0 0 0 0
3 3 0 0 0 0 0 0 0 0 0 0 0 0 0 0 0 0 0 0 0 0 0 0 0 0 0 0 0 0 0 0 0 0 0 0 0 0 0 0 0 0 0
3 3 3 3 0 0 0 0 0 0 0 0 0 3 0 0 0 0 0 0 0 0 0 0 0 0 0 0 0 0 0 0 0 0 0 0 0 0 0 0 0 0 0
3 3 3 3 3 0 0 0 0 0 0 0 0 0 0 0 0 0 0 0 0 0 0 0 0 0 0 0 0 0 0 0 0 0 0 0 0 0 0 0 0 0 0
3 3 3 3 3 3 0 0 0 0 0 0 0 0 0 0 0 0 0 0 0 0 0 0 0 0 0 0 0 0 0 0 0 0 0 0 0 0 0 0 0 0 0

GEFSMA_con_cape1000_174.txt.gz
Probability
71 68 81 77 58 58 65 55 48 65 52 39 26 16 23 42 23 13 52 58 55 61 52 45 42 55 55 61 48 48 45 29 42 48 45 42 35 26 26 26 23 29 19
77 81 90 77 61 58 55 52 65 68 55 58 45 39 42 39 35 23 32 42 42 55 35 32 32 29 35 39 39 48 48 45 42 42 35 39 45 42 16 19 16 23 23
94 87 74 71 71 65 74 65 68 55 61 39 45 35 39 52 45 42 29 35 39 42 42 32 29 29 29 26 32 35 35 58 58 48 39 45 45 45 45 35 16 19 23
84 87 71 65 74 71 71 74 48 48 52 39 45 42 45 74 48 45 39 45 55 29 42 39 39 45 35 32 23 29 39 45 48 52 45 45 52 55 52 42 42 42 35
81 71 71 65 74 74 68 48 68 55 58 61 32 58 48 68 58 35 35 35 32 39 48 58 55 58 45 32 32 29 42 45 48 45 42 39 45 52 58 48 45 42 42
77 68 71 77 68 71 81 71 74 65 61 61 19 29 39 32 48 39 32 29 39 19 23 26 45 48 48 52 48 39 45 39 45 45 45 39 39 58 45 45 35 26 29
74 77 58 84 81 74 77 58 65 61 52 55 32 26 26 29 35 55 52 35 32 19 32 35 48 42 45 35 42 35 29 35 32 42 52 52 42 45 42 39 35 29 26
77 61 77 77 84 87 77 65 71 68 42 45 42 29 29 32 35 16 45 55 35 35 23 13 35 32 42 42 19 32 32 26 19 35 42 52 52 48 35 32 26 29 26
68 77 74 71 84 68 71 81 77 71 35 45 32 26 23 26 23 23 26 35 45 55 29 35 32 29 39 35 39 23 26 32 19 26 32 39 42 45 39 32 32 29 23
65 71 68 71 74 61 81 71 42 52 55 52 32 35 26 23 19 16 26 32 29 35 32 6 10 29 35 35 29 13 16 13 19 26 26 32 32 32 26 26 19 19 23
68 65 65 71 77 71 68 65 55 58 39 39 32 29 23 35 6 19 10 19 19 32 32 23 23 19 32 32 39 16 0 0 6 23 29 26 29 26 19 16 16 10 13
68 65 58 61 61 65 71 71 65 55 55 52 42 29 32 19 19 23 23 23 23 13 23 26 23 29 29 26 10 6 3 0 0 3 10 19 29 26 19 16 13 10 10
65 71 55 68 58 68 65 61 65 55 45 52 52 39 26 26 26 13 16 10 10 13 13 6 19 26 13 19 26 3 0 0 0 0 0 0 0 13 19 19 16 13 16
61 68 61 68 61 58 45 65 42 48 58 48 29 48 42 26 19 16 13 13 6 13 6 3 3 6 10 16 6 0 3 0 0 0 0 0 0 0 0 0 6 3 10
65 55 58 61 61 48 52 61 45 48 48 35 29 48 39 32 23 19 16 10 13 16 10 3 3 3 10 26 3 6 13 0 0 0 0 0 0 0 0 0 0 0 0
68 65 61 55 58 52 48 58 48 52 42 42 45 45 42 26 23 10 13 13 10 6 6 3 10 0 13 0 0 10 6 0 0 0 0 0 0 0 0 0 0 0 0
68 65 65 65 55 52 48 45 35 39 29 29 32 29 35 29 13 13 13 10 10 10 6 6 3 16 13 19 6 6 13 10 6 0 0 0 0 0 0 0 0 0 0
65 65 61 58 55 42 42 32 29 26 23 26 29 29 29 29 32 16 23 10 10 13 6 13 13 13 35 23 13 19 0 0 3 0 0 0 0 0 0 0 0 0 0
58 61 58 52 45 39 35 32 32 26 19 19 19 26 29 26 32 19 19 10 6 3 10 6 3 26 13 10 13 10 0 13 0 0 0 0 0 0 0 0 0 0 0
58 58 48 52 52 39 39 32 29 23 23 19 19 19 23 23 23 23 16 19 16 10 10 6 0 3 6 3 6 0 0 3 0 0 0 0 0 0 0 0 0 0 0
48 48 45 45 42 42 32 32 29 26 23 19 19 19 19 16 16 13 6 10 16 16 16 10 0 0 0 13 0 0 0 0 0 0 0 0 0 0 0 0 0 0 0
48 45 48 39 45 23 3 0 23 26 26 23 19 19 19 10 3 0 0 0 3 10 13 13 10 6 16 0 0 0 0 0 0 0 0 0 0 0 0 0 0 0 0
42 42 45 42 42 26 0 0 0 23 26 29 26 29 16 10 6 6 0 0 0 0 0 13 10 6 6 3 0 0 3 0 0 0 0 0 0 0 0 0 0 0 0
45 45 48 42 39 29 6 0 0 0 19 26 29 29 23 19 10 10 6 6 10 3 0 0 3 6 3 3 0 6 13 3 3 10 0 0 0 0 0 0 0 0 0
45 45 45 45 35 29 3 0 0 6 13 23 23 19 23 23 3 0 3 10 13 10 0 0 0 0 0 0 0 0 3 0 3 3 6 3 3 0 0 0 0 0 0
42 29 29 32 29 39 3 0 0 10 13 16 26 26 0 3 0 0 0 16 13 13 3 3 0 0 0 0 0 0 0 3 3 3 3 3 3 3 0 0 0 0 0

GEFSMA_con_cape1000_180.txt.gz
Probability
97 97 100 100 94 100 97 87 90 84 81 65 61 48 48 42 35 26 26 65 68 65 52 45 52 35 42 45 42 45 42 35 39 45 42 29 32 32 23 23 26 29 23
97 100 97 100 100 97 94 94 90 97 90 81 77 77 65 55 58 35 26 48 68 61 61 45 32 39 42 42 42 52 45 35 42 48 48 42 39 32 32 29 23 32 32
97 100 100 100 100 97 97 94 90 90 87 87 81 65 77 71 65 55 48 32 39 61 52 52 52 52 42 45 52 48 48 45 55 48 48 48 52 52 48 39 32 42 32
97 97 100 94 97 97 97 94 97 87 84 84 84 87 81 84 68 65 61 58 42 19 45 55 61 61 61 42 45 52 52 52 58 61 55 52 52 52 52 48 45 29 32
94 100 100 97 97 94 94 77 90 84 77 74 81 87 84 77 77 55 65 65 68 48 35 52 71 65 61 52 42 48 55 55 55 52 48 52 55 58 58 42 42 42 42
87 90 90 90 94 97 94 94 84 87 81 71 42 52 68 68 77 71 74 65 68 58 48 32 55 55 61 61 65 42 42 52 48 48 45 45 48 58 52 48 48 39 42
90 97 97 97 94 97 97 87 81 77 81 77 65 55 61 65 65 77 77 74 68 55 55 58 55 42 39 55 61 65 48 55 55 55 52 55 55 55 55 48 45 39 32
87 77 100 97 94 97 90 81 81 74 71 77 77 55 35 45 68 52 81 84 68 68 55 39 61 58 48 29 19 52 45 39 45 48 52 58 61 55 58 45 42 32 23
94 100 94 94 87 87 90 90 87 81 71 74 74 74 52 32 42 68 68 58 81 71 61 58 61 68 52 39 26 16 42 39 42 45 42 55 55 52 55 55 45 35 29
90 90 94 90 87 87 90 87 90 81 84 77 77 84 81 74 55 39 58 55 65 68 55 39 23 39 39 39 32 19 29 26 39 39 42 45 45 48 48 45 42 42 39
87 87 87 90 87 87 87 84 97 90 90 90 84 81 81 74 71 48 35 48 52 48 48 58 35 32 32 39 29 23 23 13 19 32 35 35 45 42 42 35 26 29 32
81 84 84 87 87 87 84 84 84 84 94 87 87 81 87 74 58 55 45 35 52 58 58 58 48 52 42 42 32 23 13 3 3 6 23 35 35 32 32 29 19 16 23
84 87 77 87 87 84 81 81 77 81 90 87 90 84 84 74 65 61 48 48 48 58 55 48 52 48 35 35 29 16 13 0 0 0 0 3 16 26 26 26 23 19 19
81 84 74 81 84 84 77 77 77 77 74 77 74 81 90 77 58 52 55 45 29 39 45 39 45 45 39 48 19 6 3 0 0 0 0 0 0 0 3 13 16 13 13
84 77 77 81 77 81 77 77 77 77 77 71 71 77 74 68 55 65 65 61 52 23 19 35 42 42 42 26 6 0 19 0 0 0 0 0 0 0 0 0 0 0 0
77 71 71 77 74 71 74 71 71 68 65 74 77 74 65 61 58 61 58 55 42 39 29 39 39 35 32 6 0 3 16 0 0 0 0 0 0 0 0 0 0 0 0
84 81 77 74 77 71 68 65 65 68 61 61 55 52 55 55 58 68 58 58 45 45 32 32 55 61 42 19 0 13 13 3 0 0 0 0 0 0 0 0 0 0 0
81 84 84 74 71 71 71 68 61 61 61 45 45 55 48 42 52 55 65 58 52 58 42 39 48 48 58 45 19 19 6 0 0 0 0 0 0 0 0 0 0 0 0
77 71 74 68 74 71 61 61 58 58 48 45 39 42 39 52 48 45 58 48 45 19 32 29 35 42 52 39 42 19 3 10 3 0 0 0 0 0 0 0 0 0 0
74 71 77 74 74 61 61 61 55 55 45 39 29 35 35 45 45 45 35 48 48 39 39 29 23 32 39 42 39 29 10 26 10 0 0 0 0 0 0 0 0 0 0
68 74 68 65 61 58 55 55 52 42 39 32 32 29 26 26 19 29 16 42 39 39 29 26 26 29 26 35 26 23 6 16 16 3 3 0 0 0 0 0 0 0 0
68 68 61 58 55 45 29 16 45 42 42 35 35 32 26 16 10 0 0 0 3 10 26 35 35 19 26 32 29 10 10 6 0 13 13 0 3 6 0 0 0 0 0
61 65 61 58 52 42 16 3 3 32 42 42 32 35 13 10 6 10 0 0 0 0 0 3 10 19 26 23 26 23 13 10 10 10 10 0 0 3 0 0 0 0 0
58 65 61 58 55 35 16 3 0 10 29 32 32 29 29 23 10 13 16 3 0 0 0 0 3 3 0 10 23 16 19 13 10 3 6 3 0 3 0 0 0 0 0
58 61 65 61 52 32 13 0 0 6 26 19 32 26 29 29 19 3 3 13 13 6 0 0 0 0 0 0 3 3 0 0 0 0 3 3 0 0 0 0 0 0 0
58 52 52 48 48 39 13 0 0 3 19 23 26 23 16 13 13 3 0 13 10 10 6 3 0 0 0 0 0 3 0 0 0 0 3 3 0 0 0 0 0 0 0

GEFSMA_con_cape1000_186.txt.gz
Probability
16 13 13 13 13 3 10 6 3 3 0 0 0 0 0 0 0 0 13 61 81 81 74 48 55 48 52 55 55 52 45 45 48 55 58 48 45 35 39 35 39 32 32
19 16 13 10 10 10 10 6 3 0 0 0 0 3 0 0 0 0 3 48 81 84 77 71 68 58 52 48 52 55 48 48 58 65 61 58 45 42 42 39 35 29 29
23 19 13 19 13 6 6 3 0 0 0 0 0 0 3 3 3 3 3 10 29 74 77 68 71 68 65 58 52 52 58 65 68 68 61 58 52 52 42 45 45 48 45
35 26 16 16 10 10 6 3 3 0 0 0 0 0 0 0 0 0 3 3 10 13 48 71 77 77 74 65 61 45 58 68 68 65 61 65 61 58 55 39 45 45 39
45 29 26 19 10 13 13 13 6 3 0 0 0 0 0 3 0 3 6 3 0 3 6 26 84 74 74 68 61 58 58 61 61 52 55 55 58 55 55 52 45 42 29
45 32 29 26 16 13 16 0 10 10 6 0 3 0 0 0 0 3 6 0 0 0 0 10 19 55 68 74 71 55 58 65 52 52 55 52 52 55 52 48 45 45 39
39 39 29 29 26 16 13 10 10 6 3 3 0 0 0 0 0 0 0 0 3 3 0 0 0 6 19 65 68 61 61 55 55 61 55 55 55 52 55 48 45 42 39
39 42 26 23 16 16 10 10 10 6 3 0 0 0 0 0 0 0 0 0 0 0 3 0 0 0 3 3 10 61 65 58 52 55 58 61 65 55 55 45 45 39 29
35 32 39 29 16 10 3 3 10 10 10 6 3 0 0 0 0 0 0 0 0 0 3 3 0 0 3 0 0 19 52 61 65 48 52 55 65 61 45 48 42 39 29
39 32 39 29 19 10 6 6 10 6 10 6 0 0 0 0 0 0 0 0 0 0 0 3 0 0 6 0 0 0 19 19 35 55 55 58 58 52 45 45 39 42 35
35 35 32 26 23 10 6 10 10 3 6 3 3 0 0 0 0 0 0 0 0 0 0 0 0 0 6 6 0 0 0 0 3 32 55 52 52 48 45 48 35 32 32
32 32 45 29 23 16 10 13 10 6 6 3 3 3 3 3 0 0 0 0 0 0 0 0 0 3 3 3 3 6 3 0 0 3 23 39 45 48 48 42 32 29 29
29 32 35 29 23 19 13 13 10 10 6 6 3 0 0 3 0 0 0 0 0 0 0 0 0 0 3 3 3 10 13 0 0 0 0 10 16 19 26 29 32 29 29
29 26 19 23 23 19 23 13 16 10 6 6 6 3 0 3 3 3 0 0 0 0 0 0 0 0 0 3 3 3 3 0 0 0 0 0 0 3 3 10 13 19 19
26 26 23 32 29 26 16 13 10 6 10 6 10 6 3 3 0 0 0 0 0 0 0 0 0 0 3 3 0 0 0 0 0 0 0 0 0 0 0 0 0 0 0
23 26 29 32 26 26 16 16 10 6 10 10 10 3 3 3 3 3 0 0 0 0 0 0 0 0 0 0 0 0 0 0 0 0 0 0 0 0 0 0 0 0 0
13 19 19 19 13 19 19 19 13 10 6 10 13 13 6 3 0 0 0 0 0 0 0 0 0 0 0 0 0 0 0 0 0 0 0 0 0 0 0 0 0 0 0
16 13 16 13 13 13 16 19 19 16 13 13 13 13 6 6 0 0 0 0 0 0 0 0 0 0 0 0 0 0 0 0 0 0 0 0 0 0 0 0 0 0 0
16 16 16 16 16 16 13 13 19 19 16 13 13 10 6 6 3 0 0 0 3 3 0 0 0 0 0 0 0 0 0 0 0 0 0 0 0 0 0 0 0 0 0
19 23 26 16 16 13 16 16 16 16 13 10 6 6 10 10 6 3 3 0 0 0 0 0 0 0 0 0 0 0 0 0 0 0 0 0 0 0 0 0 0 0 0
26 19 13 13 16 16 16 13 13 16 13 13 6 6 6 6 6 0 3 3 3 0 0 0 0 0 0 0 0 0 0 0 0 0 0 0 0 0 0 0 0 0 0
19 13 3 10 10 10 6 3 6 10 10 6 10 6 3 3 0 0 0 0 0 0 0 0 0 0 0 0 0 0 0 0 0 0 0 0 0 0 0 0 0 0 0
10 10 10 3 6 6 3 3 0 3 6 6 6 3 3 6 0 3 0 0 0 0 0 0 0 0 0 0 0 0 0 0 0 0 0 0 0 0 0 0 0 0 0
10 10 10 10 10 10 3 0 0 0 3 3 3 3 3 3 6 0 0 0 0 0 0 0 0 0 0 0 0 0 0 0 0 0 0 0 0 0 0 0 0 0 0
10 10 10 6 10 6 3 0 0 0 0 0 3 0 0 0 0 0 0 0 0 0 0 0 0 0 0 0 0 0 0 0 0 0 0 0 0 0 0 0 0 0 0
10 6 6 6 6 10 6 0 0 3 3 0 0 0 0 0 0 0 0 0 0 0 0 0 0 0 0 0 0 0 0 0 0 0 0 0 0 0 0 0 0 0 0